• In Belarus
  • List of Countries
  • For 7 days
  • Water Temperature
  • Satellite Maps
  • Weather Map
  • Weather Widgets
  • user-avatar
    Login

    Hourly Weather Halhgol

    Today, 18 March, Monday

    Time Temperature Precipitation Wind Pressure Humidity
    00:00 +2°C° 0 mm 2 mps 692 mmHg 56%
    01:00 +2°C° 0 mm 2 mps 692 mmHg 56%
    02:00 +1°C° 0 mm 3 mps 692 mmHg 57%
    03:00 0°C° 0 mm 3 mps 692 mmHg 57%
    04:00 0°C° 0 mm 3 mps 692 mmHg 57%
    05:00 0°C° 0 mm 3 mps 692 mmHg 58%
    06:00 0°C° 0 mm 3 mps 692 mmHg 55%
    07:00 +1°C° 0 mm 3 mps 692 mmHg 52%
    08:00 +2°C° 0 mm 3 mps 693 mmHg 47%
    09:00 +4°C° 0 mm 3 mps 693 mmHg 44%
    10:00 +7°C° 0 mm 3 mps 693 mmHg 41%
    11:00 +8°C° 0 mm 3 mps 693 mmHg 38%
    12:00 +9°C° 0 mm 3 mps 692 mmHg 36%
    13:00 +10°C° 0 mm 3 mps 692 mmHg 34%
    14:00 +11°C° 0 mm 3 mps 692 mmHg 32%
    15:00 +10°C° 0 mm 2 mps 691 mmHg 32%
    16:00 +11°C° 0 mm 1 mps 691 mmHg 33%
    17:00 +11°C° 0 mm 1 mps 691 mmHg 34%
    18:00 +9°C° 0 mm 1 mps 691 mmHg 36%
    19:00 +7°C° 0 mm 2 mps 690 mmHg 38%
    20:00 +5°C° 0 mm 3 mps 690 mmHg 37%
    21:00 +5°C° 0 mm 3 mps 690 mmHg 38%
    22:00 +4°C° 0 mm 4 mps 689 mmHg 39%
    23:00 +4°C° 0 mm 4 mps 689 mmHg 40%

    Tomorrow, 19 March, Tuesday

    Time Temperature Precipitation Wind Pressure Humidity
    00:00 +2°C° 0 mm 5 mps 688 mmHg 40%
    01:00 +2°C° 0 mm 5 mps 688 mmHg 41%
    02:00 +2°C° 0 mm 6 mps 688 mmHg 42%
    03:00 +1°C° 0 mm 5 mps 688 mmHg 42%
    04:00 +1°C° 0 mm 5 mps 687 mmHg 43%
    05:00 0°C° 0 mm 5 mps 687 mmHg 44%
    06:00 0°C° 0 mm 5 mps 688 mmHg 48%
    07:00 0°C° 0 mm 5 mps 688 mmHg 53%
    08:00 0°C° 0 mm 5 mps 689 mmHg 58%
    09:00 +1°C° 0 mm 6 mps 689 mmHg 57%
    10:00 0°C° 0 mm 7 mps 689 mmHg 56%
    11:00 +2°C° 0 mm 7 mps 690 mmHg 55%
    12:00 +2°C° 0 mm 7 mps 690 mmHg 52%
    13:00 +1°C° 0 mm 8 mps 691 mmHg 49%
    14:00 +2°C° 0 mm 8 mps 691 mmHg 46%
    15:00 +1°C° 0 mm 8 mps 692 mmHg 47%
    16:00 0°C° 0 mm 7 mps 693 mmHg 48%
    17:00 0°C° 0 mm 7 mps 693 mmHg 50%
    18:00 -2°C° 0 mm 7 mps 694 mmHg 49%
    19:00 -3°C° 0 mm 7 mps 695 mmHg 48%
    20:00 -4°C° 0 mm 6 mps 695 mmHg 48%
    21:00 -5°C° 0 mm 6 mps 696 mmHg 50%
    22:00 -6°C° 0 mm 6 mps 696 mmHg 53%
    23:00 -8°C° 0 mm 6 mps 696 mmHg 55%

    Day after tomorrow, 20 March, Wednesday

    Time Temperature Precipitation Wind Pressure Humidity
    00:00 -9°C° 0 mm 6 mps 697 mmHg 56%
    01:00 -9°C° 0 mm 6 mps 697 mmHg 57%
    02:00 -10°C° 0 mm 6 mps 697 mmHg 58%
    03:00 -10°C° 0 mm 6 mps 698 mmHg 58%
    04:00 -10°C° 0 mm 5 mps 698 mmHg 58%
    05:00 -11°C° 0 mm 5 mps 699 mmHg 58%
    06:00 -11°C° 0 mm 5 mps 699 mmHg 56%
    07:00 -11°C° 0 mm 5 mps 700 mmHg 55%
    08:00 -9°C° 0 mm 4 mps 700 mmHg 53%
    09:00 -8°C° 0 mm 5 mps 701 mmHg 47%
    10:00 -7°C° 0 mm 5 mps 701 mmHg 40%
    11:00 -6°C° 0 mm 5 mps 701 mmHg 33%
    12:00 -5°C° 0 mm 5 mps 701 mmHg 29%
    13:00 -4°C° 0 mm 5 mps 701 mmHg 25%
    14:00 -4°C° 0 mm 6 mps 701 mmHg 21%
    15:00 -4°C° 0 mm 6 mps 701 mmHg 21%
    16:00 -4°C° 0 mm 5 mps 701 mmHg 22%
    17:00 -5°C° 0 mm 5 mps 701 mmHg 23%
    18:00 -6°C° 0 mm 5 mps 701 mmHg 27%
    19:00 -5°C° 0 mm 4 mps 701 mmHg 31%
    20:00 -6°C° 0 mm 3 mps 702 mmHg 35%
    21:00 -6°C° 0 mm 2 mps 702 mmHg 36%
    22:00 -6°C° 0 mm 2 mps 702 mmHg 37%
    23:00 -4°C° 0 mm 1 mps 702 mmHg 38%

    21 March, Thursday

    Time Temperature Precipitation Wind Pressure Humidity
    00:00 -6°C° 0 mm 2 mps 702 mmHg 39%
    01:00 -6°C° 0 mm 2 mps 703 mmHg 40%
    02:00 -6°C° 0 mm 2 mps 703 mmHg 41%
    03:00 -6°C° 0 mm 2 mps 702 mmHg 44%
    04:00 -6°C° 0 mm 2 mps 702 mmHg 47%
    05:00 -8°C° 0 mm 3 mps 702 mmHg 50%
    06:00 -7°C° 0 mm 3 mps 702 mmHg 51%
    07:00 -8°C° 0 mm 4 mps 703 mmHg 53%
    08:00 -8°C° 0 mm 5 mps 703 mmHg 55%
    09:00 -7°C° 0 mm 5 mps 703 mmHg 50%
    10:00 -6°C° 0 mm 5 mps 703 mmHg 46%
    11:00 -5°C° 0 mm 6 mps 703 mmHg 41%
    12:00 -4°C° 0 mm 6 mps 702 mmHg 38%
    13:00 -4°C° 0 mm 6 mps 702 mmHg 35%
    14:00 -4°C° 0 mm 6 mps 702 mmHg 32%
    15:00 -4°C° 0 mm 6 mps 701 mmHg 33%
    16:00 -4°C° 0 mm 5 mps 701 mmHg 33%
    17:00 -4°C° 0 mm 5 mps 701 mmHg 33%
    18:00 -4°C° 0 mm 4 mps 701 mmHg 37%
    19:00 -5°C° 0 mm 4 mps 701 mmHg 40%
    20:00 -6°C° 0 mm 3 mps 701 mmHg 44%
    21:00 -6°C° 0 mm 3 mps 701 mmHg 44%
    22:00 -6°C° 0 mm 3 mps 701 mmHg 44%
    23:00 -6°C° 0 mm 3 mps 701 mmHg 44%

    22 March, Friday

    Time Temperature Precipitation Wind Pressure Humidity
    00:00 -6°C° 0 mm 3 mps 700 mmHg 45%
    01:00 -6°C° 0 mm 3 mps 700 mmHg 46%
    02:00 -6°C° 0 mm 3 mps 700 mmHg 46%
    03:00 -7°C° 0 mm 3 mps 700 mmHg 49%
    04:00 -7°C° 0 mm 3 mps 699 mmHg 52%
    05:00 -6°C° 0 mm 2 mps 699 mmHg 56%
    06:00 -7°C° 0 mm 3 mps 699 mmHg 58%
    07:00 -8°C° 0 mm 4 mps 700 mmHg 61%
    08:00 -8°C° 0 mm 5 mps 700 mmHg 64%
    09:00 -7°C° 0.1 mm 5 mps 700 mmHg 59%
    10:00 -6°C° 0.1 mm 6 mps 700 mmHg 54%
    11:00 -5°C° 0.1 mm 6 mps 701 mmHg 49%
    12:00 -4°C° 0.1 mm 7 mps 701 mmHg 42%
    13:00 -4°C° 0.1 mm 7 mps 701 mmHg 36%
    14:00 -4°C° 0.1 mm 8 mps 701 mmHg 29%
    15:00 -5°C° 0 mm 8 mps 701 mmHg 27%
    16:00 -5°C° 0 mm 8 mps 702 mmHg 26%
    17:00 -5°C° 0 mm 8 mps 702 mmHg 24%
    18:00 -6°C° 0 mm 7 mps 702 mmHg 27%
    19:00 -6°C° 0 mm 6 mps 703 mmHg 30%
    20:00 -7°C° 0 mm 4 mps 703 mmHg 33%
    21:00 -8°C° 0 mm 4 mps 703 mmHg 37%
    22:00 -7°C° 0 mm 3 mps 703 mmHg 40%
    23:00 -8°C° 0 mm 3 mps 703 mmHg 43%

    23 March, Saturday

    Time Temperature Precipitation Wind Pressure Humidity
    00:00 -8°C° 0 mm 3 mps 703 mmHg 44%
    01:00 -8°C° 0 mm 3 mps 702 mmHg 46%
    02:00 -9°C° 0 mm 4 mps 702 mmHg 47%
    03:00 -9°C° 0 mm 4 mps 701 mmHg 46%
    04:00 -10°C° 0 mm 4 mps 701 mmHg 46%
    05:00 -11°C° 0 mm 5 mps 701 mmHg 45%
    06:00 -10°C° 0 mm 5 mps 700 mmHg 44%
    07:00 -8°C° 0 mm 5 mps 700 mmHg 43%
    08:00 -7°C° 0 mm 5 mps 700 mmHg 42%
    09:00 -5°C° 0 mm 6 mps 700 mmHg 41%
    10:00 -4°C° 0 mm 6 mps 699 mmHg 39%
    11:00 -2°C° 0 mm 7 mps 699 mmHg 38%
    12:00 -1°C° 0 mm 7 mps 699 mmHg 36%
    13:00 0°C° 0 mm 7 mps 698 mmHg 34%
    14:00 +2°C° 0 mm 7 mps 697 mmHg 33%
    15:00 +2°C° 0 mm 6 mps 697 mmHg 32%
    16:00 +2°C° 0 mm 6 mps 696 mmHg 32%
    17:00 +2°C° 0 mm 5 mps 695 mmHg 32%
    18:00 +1°C° 0 mm 4 mps 695 mmHg 36%
    19:00 -1°C° 0 mm 4 mps 695 mmHg 40%
    20:00 -1°C° 0 mm 3 mps 695 mmHg 44%
    21:00 -1°C° 0 mm 3 mps 694 mmHg 44%
    22:00 -2°C° 0 mm 3 mps 694 mmHg 45%
    23:00 -3°C° 0 mm 4 mps 693 mmHg 45%
    Show more